Weather in Pohrebniaky

Ukraine / Poltava Region     49°35′07″N   32°47′43″E
temp.,
°C
wind,
m/s
gust,
m/s
humid.,
%
clouds,
%
prec.,
mm/h
press.,
hPa
HPBL,
m
11 may, tue
tue1100:00+8nnw51274100 0.0 1021220
03:00+10n61264100 0.0 1020418
06:00+10n61469100 0.0 1019397
09:00+12n81370100 0.0 1019515
12:00+18nne8106446 0.0 1017955
15:00+18nne6970100 0.1 10171380
18:00+13ne41187100 0.3 1018593
21:00+10ne49870 0.6 1018325
12 may, wed
wed1200:00+7ne412905 0.0 1018288
03:00+7ne5985100 0.1 1018661
06:00+8ene5107698 0.0 1018643
09:00+10e797293 0.1 10171159
12:00+12e686882 0.3 10161344
15:00+10ene5676100 0.5 1016815
18:00+12ene346598 0.1 10141290
21:00+8e2284100 0.2 101436
13 may, thu
thu1300:00+7se2288100 0.0 101423
03:00+8sse2285100 0.0 101327
06:00+8se3488100 0.0 101487
09:00+12sse566819 0.0 1014654
12:00+16sse675613 0.0 10131250
15:00+18se564796 0.0 10131444
18:00+17se3659100 0.0 1012275
21:00+14e367178 0.0 101298
14 may, fri
fri1400:00+11ese3782100 0.1 1012105
03:00+12e369392 0.6 1010108
06:00+12se339396 0.1 101062
09:00+16sse347670 0.1 1010389
12:00+20s4562100 0.0 1010838
15:00+22s3452100 0.0 10101225
18:00+21s2357100 0.0 1010417
21:00+17nnw1168100 0.0 101011
15 may, sat
sat1500:00+14ne22809 0.4 100915
03:00+13s1190100 2.7 101011
06:00+14wsw119349 0.9 101019
09:00+17ssw337890 1.0 1010508
12:00+20sw436728 0.0 10101074
15:00+22ssw455817 0.4 10091424
18:00
21:00+14wsw47925 1.4 1013130